カタログに戻る

THOR ABLESTAR DEB

運用中LEO
NORAD 261·DEBRIS·🇺🇸 United States

打ち上げ Jun 29, 1961 から Cape Canaveral Space Force Station

Loading…

次のパス (今後24時間)

TLE

最新Source: Space-Track

元期: Sep 14, 2026, 12:34 UTC

1 00261U 61015CH  26257.52420712  .00000058  00000-0  88495-4 0  9998
2 00261  66.6810 189.3849 0095149 272.7106  86.3089 14.01072040324601

AllMySatでTHOR ABLESTAR DEBをリアルタイム追跡

Download on the App Store